Temperature
-11 -11 -11 -11 -11 -11 -11 -11 -10 -10 -9 -9 -9 -8 -8 -7 -6 -6 -5 -4 -4 -3 -2 -1 1 2 4 5 7 9 10 11 12 13 14 14 14 14
-11 -11 -11 -11 -11 -11 -11 -11 -10 -10 -10 -9 -9 -9 -8 -8 -7 -6 -5 -5 -4 -3 -2 -1 0 2 3 5 6 8 9 11 12 13 13 14 14 14
-11 -11 -12 -12 -12 -12 -11 -11 -11 -10 -10 -10 -9 -9 -8 -8 -7 -6 -6 -5 -4 -3 -2 -1 0 1 3 5 6 7 9 10 11 12 13 13 14 14
-11 -11 -12 -12 -12 -12 -11 -11 -11 -11 -11 -11 -10 -9 -9 -8 -8 -7 -6 -5 -4 -3 -2 -1 0 1 3 4 6 7 9 10 11 12 13 13 14 14
-11 -11 -12 -12 -12 -12 -11 -11 -11 -11 -11 -11 -11 -10 -10 -9 -8 -7 -6 -5 -4 -3 -2 -1 0 1 3 4 6 7 8 10 11 12 13 13 13 14
-11 -11 -12 -12 -12 -12 -11 -11 -11 -11 -11 -11 -11 -11 -10 -10 -9 -8 -7 -5 -4 -3 -2 -1 0 1 3 4 6 7 8 9 10 11 12 13 13 13
-10 -11 -11 -12 -11 -11 -11 -11 -11 -11 -11 -11 -11 -11 -11 -11 -10 -10 -8 -6 -4 -3 -2 -1 1 2 3 4 5 7 8 9 10 11 12 12 13 13
-10 -11 -11 -12 -12 -11 -11 -11 -11 -11 -11 -11 -11 -11 -11 -11 -11 -10 -10 -8 -6 -3 -2 -1 0 2 3 4 5 7 8 9 10 11 12 12 12 13
-10 -11 -11 -12 -12 -12 -12 -12 -12 -12 -12 -11 -11 -12 -11 -11 -11 -10 -10 -9 -7 -4 -3 -1 1 2 3 4 6 7 8 9 10 11 11 12 12 13
-10 -11 -11 -12 -12 -11 -11 -12 -12 -12 -12 -12 -12 -12 -11 -11 -11 -10 -10 -8 -6 -3 -3 -2 1 2 3 4 5 6 8 8 10 10 11 12 12 12
-10 -11 -11 -12 -12 -11 -12 -12 -12 -12 -12 -12 -12 -12 -11 -11 -10 -10 -9 -9 -7 -3 -2 -2 1 2 3 4 5 6 7 8 10 10 11 11 12 12
-10 -11 -12 -12 -11 -11 -12 -12 -12 -12 -12 -12 -12 -12 -11 -11 -11 -10 -10 -9 -8 -5 -2 -1 0 2 3 4 5 6 7 8 9 10 11 11 11 11
-11 -11 -11 -11 -11 -12 -12 -12 -12 -12 -12 -12 -12 -12 -12 -11 -11 -10 -9 -9 -7 -6 -3 -2 0 2 3 4 5 6 7 8 9 10 10 11 11 11
-11 -11 -11 -11 -11 -12 -12 -12 -12 -13 -13 -13 -13 -12 -12 -11 -10 -9 -8 -7 -6 -5 -3 -2 -1 1 3 4 5 6 7 8 9 10 10 10 10 11
-11 -11 -11 -11 -12 -12 -12 -12 -13 -13 -13 -13 -13 -12 -12 -11 -10 -9 -7 -6 -5 -4 -2 -2 -1 1 2 3 5 6 7 8 9 9 10 10 10 11
-10 -10 -11 -11 -12 -12 -12 -12 -13 -13 -13 -13 -13 -12 -12 -11 -10 -9 -7 -5 -4 -3 -2 -1 -0 1 2 3 5 6 7 7 8 9 10 10 10 11
-10 -10 -11 -11 -11 -12 -12 -12 -12 -13 -13 -13 -13 -13 -12 -11 -10 -9 -7 -6 -4 -3 -2 -1 0 1 2 3 4 6 7 8 8 9 10 10 10 10
-10 -10 -11 -11 -12 -12 -12 -12 -12 -13 -13 -13 -13 -13 -12 -12 -10 -9 -7 -6 -4 -3 -2 -1 0 1 2 3 4 5 7 7 8 9 9 10 10 10
-10 -10 -11 -11 -11 -11 -12 -12 -12 -12 -13 -13 -13 -13 -12 -12 -11 -9 -8 -6 -4 -3 -2 -1 0 1 2 3 3 5 6 7 8 9 9 9 10 10
-10 -10 -11 -11 -11 -11 -11 -12 -12 -12 -12 -12 -12 -12 -12 -12 -11 -10 -9 -7 -5 -3 -2 -1 -0 0 1 2 3 4 5 7 7 8 9 9 9 9
-10 -10 -10 -11 -11 -11 -11 -11 -11 -12 -12 -12 -12 -12 -12 -12 -11 -10 -9 -8 -6 -4 -3 -2 -1 -0 1 2 2 3 4 5 7 8 8 8 8 8
-10 -10 -10 -10 -11 -11 -11 -11 -11 -11 -11 -12 -12 -12 -12 -12 -11 -11 -9 -8 -7 -5 -4 -2 -1 -0 1 2 2 2 3 4 5 6 7 8 8 7
-10 -10 -10 -10 -10 -11 -11 -11 -11 -11 -11 -12 -12 -12 -12 -12 -11 -11 -10 -8 -7 -5 -4 -3 -2 -1 0 1 1 1 2 3 4 4 5 6 7 8
Wind_Speed
10 10 9 10 10 10 11 11 11 14 14 11 10 11 10 11 17 14 11 18 21 22 23 23 22 22 21 20 18 17 15 13 14 21 28 34 37 37
8 10 10 10 10 10 11 11 10 11 13 11 12 12 13 14 19 15 14 22 23 23 24 24 23 22 22 20 18 16 14 12 12 19 27 32 34 33
10 10 12 12 10 10 11 11 10 10 13 13 11 12 14 13 13 11 13 12 14 22 24 24 24 23 22 21 19 17 14 12 12 16 23 29 31 31
12 11 12 12 12 11 11 12 11 10 11 15 13 12 13 13 12 12 12 12 11 20 23 24 24 23 22 21 19 16 14 12 11 14 20 24 28 29
12 12 12 12 13 12 12 12 11 11 9 12 13 11 11 11 12 12 13 11 13 15 20 21 22 22 22 21 19 16 13 12 12 13 15 20 24 27
13 13 12 12 13 13 12 12 12 11 9 10 11 11 10 10 10 10 12 11 11 12 14 15 17 20 21 21 19 16 14 12 12 14 15 17 20 25
12 12 12 16 19 16 14 13 12 9 10 11 11 11 10 9 10 10 12 12 13 8 7 9 9 9 11 17 18 15 14 13 13 14 15 17 19 23
10 10 11 13 17 22 25 23 20 13 11 10 10 11 11 10 10 11 11 11 8 6 7 9 8 8 9 10 14 15 14 13 13 14 15 17 19 22
9 8 10 11 15 11 17 20 18 22 21 14 12 11 12 11 11 12 11 11 12 10 10 8 7 8 8 11 16 16 15 14 13 14 15 16 19 21
8 8 9 9 12 15 10 9 10 11 16 12 10 11 12 11 11 11 12 12 13 12 10 6 6 6 7 7 14 16 15 14 14 16 16 16 17 18
8 8 9 8 18 22 12 11 12 11 15 19 20 18 19 18 14 8 7 8 8 6 4 5 4 4 5 5 9 14 15 14 15 17 18 17 17 17
7 8 13 16 20 21 10 10 13 12 12 13 14 15 12 13 15 8 6 7 6 5 3 4 3 2 3 3 5 8 9 13 16 18 19 19 19 14
8 7 8 20 20 20 17 10 16 15 12 12 10 9 8 7 7 7 7 8 8 7 5 5 4 3 2 2 3 6 7 7 9 13 18 20 20 16
9 8 10 20 20 20 16 18 22 17 10 10 10 9 9 9 8 9 9 10 11 13 12 8 5 4 2 1 3 4 6 8 9 11 13 18 18 16
9 17 19 20 18 14 18 21 17 11 11 11 11 11 10 10 10 9 8 8 10 11 12 11 9 7 5 2 2 3 4 6 9 11 13 14 13 14
9 13 18 18 15 16 15 13 10 11 12 11 11 11 10 10 9 9 8 8 5 5 6 7 8 7 4 4 3 3 4 6 10 11 11 10 11 12
9 6 6 7 8 8 8 9 9 10 11 12 11 11 11 11 11 10 8 7 5 5 5 4 5 4 2 2 1 3 4 5 8 11 13 10 10 13
11 8 9 9 10 10 10 10 9 11 11 12 12 12 12 12 11 10 10 8 7 7 6 5 4 2 1 1 5 0 2 4 6 11 12 12 11 12
8 7 8 9 9 9 8 7 7 9 9 10 11 12 12 12 12 12 11 10 9 8 7 6 4 3 1 2 5 10 2 4 7 8 10 10 9 13
6 7 8 9 9 8 8 7 7 8 8 9 10 11 11 12 12 12 12 12 10 8 8 6 6 5 2 1 2 6 12 4 8 9 10 10 9 14
8 8 9 9 9 8 8 7 7 7 8 8 9 10 11 11 11 12 12 16 12 8 9 8 7 9 3 1 4 5 9 16 13 9 11 15 13 11
8 9 9 9 9 8 7 7 6 6 7 7 8 9 10 10 11 12 12 12 10 9 8 7 8 5 3 5 9 8 8 11 19 24 19 11 9 11
7 8 8 9 8 7 6 6 6 5 6 7 8 8 9 10 10 10 11 11 10 10 9 8 6 5 5 6 9 10 14 14 13 17 16 22 30 35
Wind_Direction
300 302 307 308 309 310 308 303 302 308 311 309 312 309 311 308 305 303 296 288 281 276 272 270 269 268 270 271 271 272 271 269 243 216 205 204 204 203
298 301 305 307 309 309 310 310 306 303 303 306 309 308 310 310 307 310 305 296 286 278 271 268 266 264 267 266 266 266 263 262 243 218 206 203 203 202
297 300 301 304 305 309 309 309 308 307 305 308 307 307 307 306 303 302 299 291 285 279 272 266 262 258 260 258 259 259 257 254 242 219 208 203 201 199
291 293 295 303 302 303 304 306 305 303 306 310 311 311 307 306 304 306 304 297 286 278 272 266 260 254 253 250 250 251 249 244 238 219 210 202 198 196
280 284 286 292 295 298 300 302 303 307 303 303 307 309 308 312 316 313 309 300 292 282 274 267 260 252 247 245 244 244 239 234 229 216 205 198 193 191
272 275 279 283 285 290 300 305 308 307 304 304 305 307 309 315 322 323 319 314 304 293 279 273 264 251 243 239 236 234 230 227 226 215 203 192 189 188
270 270 277 292 303 310 314 313 313 311 311 306 305 308 310 318 319 318 314 314 305 282 286 278 271 250 232 234 230 225 221 222 222 214 201 192 189 186
282 276 281 293 304 317 317 320 325 321 313 307 305 304 304 304 306 306 309 311 308 319 326 295 275 254 229 219 214 211 210 214 214 206 197 192 188 186
289 286 296 304 315 301 310 323 323 320 317 310 303 296 294 293 293 295 294 294 286 291 304 285 264 252 235 220 205 204 203 205 203 196 188 185 185 184
292 288 289 293 305 312 320 319 308 306 308 308 295 290 289 284 276 278 285 291 286 273 251 259 260 249 238 212 200 197 198 202 200 190 183 180 176 176
308 309 314 304 314 327 335 322 317 313 322 324 321 318 315 313 308 298 293 296 295 288 262 248 260 250 229 204 197 194 194 198 199 188 181 177 172 168
323 325 329 326 328 335 336 324 321 326 332 326 322 318 312 307 310 301 284 281 282 286 305 317 283 266 213 195 186 187 190 196 194 186 178 173 166 168
336 330 320 329 338 341 341 329 331 344 336 324 321 317 313 303 294 281 265 259 259 262 291 329 302 292 252 186 180 184 182 183 186 182 176 169 169 168
335 325 323 339 346 347 344 342 348 348 335 331 331 330 328 321 310 297 279 261 249 251 263 272 273 287 298 208 174 170 174 174 175 175 175 171 171 163
334 340 345 349 350 345 345 350 351 343 341 341 338 335 330 321 315 310 298 284 268 254 253 247 247 262 270 260 205 164 160 170 173 169 168 173 174 166
332 338 344 346 349 348 349 347 345 345 348 342 337 335 333 333 332 331 327 324 313 296 266 253 250 248 256 263 234 175 162 169 170 166 160 161 163 164
347 339 334 337 343 343 344 345 346 348 350 346 345 345 345 345 344 343 338 338 336 331 327 315 280 248 241 323 230 174 160 160 164 159 157 154 159 160
358 343 342 342 343 344 344 343 345 350 350 349 349 349 349 348 347 348 351 349 346 339 334 329 324 319 296 40 23 89 135 146 154 153 153 150 154 154
357 340 338 337 337 338 337 338 339 341 344 348 350 351 351 351 352 353 354 354 351 344 338 338 343 354 51 49 8 10 41 139 138 138 143 137 142 150
345 339 336 335 334 334 334 334 335 339 345 348 349 351 353 354 356 356 355 355 350 346 346 351 358 2 17 44 34 12 14 86 131 126 121 110 100 113
341 338 334 333 332 331 330 331 332 337 343 347 349 351 353 355 356 355 353 354 357 349 349 346 331 329 309 30 81 49 35 45 72 113 129 127 122 124
335 334 331 328 329 328 328 330 333 339 346 350 349 350 352 355 356 355 354 353 352 348 340 335 337 354 34 86 97 88 69 61 58 57 59 88 131 141
327 326 324 325 326 327 329 333 336 341 348 351 351 351 352 355 355 355 354 353 353 353 353 354 5 29 48 80 97 94 83 78 76 73 65 81 96 105
Height
1446 1440 1435 1429 1423 1418 1412 1407 1402 1393 1385 1380 1378 1374 1372 1369 1368 1367 1366 1366 1366 1367 1368 1370 1372 1375 1379 1384 1389 1395 1401 1407 1414 1422 1431 1440 1450 1460
1441 1436 1430 1424 1418 1413 1408 1403 1399 1393 1384 1378 1374 1370 1367 1365 1363 1361 1359 1358 1358 1359 1361 1362 1365 1368 1371 1376 1382 1388 1394 1400 1407 1414 1422 1432 1442 1452
1436 1431 1425 1420 1414 1408 1403 1399 1394 1390 1382 1375 1371 1366 1363 1360 1356 1354 1352 1351 1350 1351 1353 1355 1357 1360 1364 1369 1374 1380 1386 1393 1399 1407 1414 1424 1434 1444
1431 1426 1421 1415 1410 1404 1399 1394 1390 1385 1380 1372 1365 1362 1358 1355 1352 1349 1346 1345 1344 1344 1346 1348 1350 1353 1357 1362 1367 1373 1380 1386 1393 1400 1407 1416 1425 1436
1425 1420 1415 1411 1405 1400 1395 1390 1385 1380 1375 1369 1362 1358 1354 1351 1347 1343 1340 1338 1337 1338 1339 1341 1343 1346 1350 1354 1360 1366 1373 1379 1386 1392 1400 1408 1418 1427
1418 1414 1410 1406 1401 1396 1391 1386 1380 1374 1369 1364 1358 1353 1349 1346 1343 1338 1334 1332 1331 1331 1332 1334 1337 1340 1343 1348 1353 1360 1366 1373 1379 1387 1393 1401 1410 1419
1412 1408 1405 1401 1397 1393 1388 1382 1376 1370 1364 1359 1354 1349 1345 1342 1339 1335 1331 1327 1326 1327 1327 1328 1330 1333 1336 1341 1346 1353 1360 1367 1373 1380 1387 1395 1403 1412
1407 1403 1400 1396 1392 1388 1383 1378 1373 1366 1360 1355 1350 1345 1341 1338 1334 1331 1328 1325 1322 1323 1322 1322 1325 1327 1330 1335 1340 1347 1354 1361 1368 1375 1382 1389 1396 1404
1404 1399 1395 1392 1388 1382 1377 1372 1367 1362 1358 1352 1346 1341 1336 1333 1330 1326 1324 1321 1318 1317 1318 1316 1319 1321 1324 1328 1334 1341 1348 1355 1363 1370 1377 1384 1391 1398
1401 1396 1392 1387 1383 1378 1372 1366 1361 1356 1352 1346 1341 1336 1332 1328 1326 1323 1320 1316 1313 1313 1314 1313 1313 1316 1319 1323 1328 1335 1342 1349 1357 1365 1372 1379 1386 1394
1399 1393 1389 1384 1380 1375 1369 1362 1356 1351 1346 1341 1336 1331 1327 1323 1321 1319 1316 1313 1310 1308 1310 1310 1309 1312 1314 1318 1323 1329 1337 1344 1351 1360 1368 1376 1383 1390
1396 1391 1386 1381 1377 1372 1366 1360 1353 1347 1341 1335 1330 1325 1321 1318 1315 1313 1311 1309 1307 1305 1305 1306 1305 1307 1310 1313 1318 1324 1332 1338 1346 1355 1364 1372 1379 1386
1394 1388 1383 1379 1375 1369 1364 1359 1353 1346 1338 1332 1327 1322 1317 1314 1310 1308 1306 1305 1303 1301 1301 1302 1302 1303 1305 1309 1313 1319 1326 1333 1341 1350 1359 1368 1376 1384
1393 1388 1383 1378 1373 1367 1362 1357 1351 1344 1337 1331 1325 1320 1315 1310 1306 1303 1302 1300 1298 1297 1298 1298 1298 1300 1302 1304 1308 1314 1321 1328 1336 1345 1354 1364 1374 1381
1393 1388 1383 1377 1372 1366 1361 1356 1349 1342 1336 1330 1324 1319 1313 1308 1304 1300 1298 1296 1295 1294 1295 1296 1296 1297 1299 1301 1304 1309 1316 1323 1331 1340 1350 1359 1368 1377
1392 1387 1382 1376 1371 1366 1360 1354 1348 1343 1338 1331 1325 1319 1313 1307 1302 1299 1296 1294 1293 1293 1293 1294 1295 1296 1297 1298 1301 1306 1313 1319 1327 1336 1345 1356 1365 1374
1392 1386 1380 1375 1370 1364 1359 1354 1349 1343 1337 1331 1325 1319 1313 1307 1302 1299 1296 1294 1293 1292 1292 1292 1293 1294 1295 1297 1301 1304 1310 1316 1323 1332 1342 1352 1362 1371
1391 1386 1381 1376 1371 1366 1360 1355 1350 1345 1339 1333 1327 1321 1315 1309 1304 1300 1297 1295 1293 1292 1292 1292 1293 1294 1296 1297 1300 1303 1307 1313 1321 1329 1338 1347 1358 1368
1391 1386 1381 1377 1372 1367 1362 1357 1352 1347 1341 1336 1330 1324 1318 1312 1307 1302 1298 1296 1294 1293 1293 1293 1293 1293 1294 1296 1299 1301 1305 1310 1318 1326 1336 1345 1354 1364
1391 1386 1382 1378 1373 1369 1364 1359 1354 1349 1343 1338 1332 1327 1321 1315 1310 1305 1302 1299 1297 1295 1295 1294 1294 1294 1295 1297 1299 1302 1305 1310 1315 1323 1332 1343 1353 1364
1390 1387 1383 1379 1374 1370 1365 1361 1356 1351 1346 1340 1335 1330 1324 1319 1314 1310 1306 1303 1300 1298 1297 1297 1297 1297 1298 1300 1302 1304 1307 1311 1317 1322 1330 1339 1349 1360
1390 1387 1383 1379 1375 1371 1367 1362 1357 1353 1348 1343 1338 1333 1328 1323 1318 1314 1310 1306 1304 1302 1301 1300 1300 1300 1301 1302 1305 1308 1310 1313 1318 1324 1333 1340 1345 1355
1390 1387 1383 1380 1376 1372 1368 1363 1359 1355 1350 1345 1341 1336 1331 1326 1322 1318 1314 1311 1308 1306 1305 1304 1304 1304 1305 1306 1309 1312 1315 1318 1322 1327 1335 1343 1350 1359